OSCAR 7 (AO-7) 1 07530U 74089B 26072.94475469 -.00000020 00000+0 16708-3 0 9995 2 07530 101.9966 85.1804 0011946 313.8747 110.0971 12.53696440348586 PHASE 3B (AO-10) 1 14129U 83058B 26072.70379219 .00000107 00000+0 00000+0 0 9992 2 14129 25.9213 235.5807 6045284 89.2129 335.2286 2.05870209293524 UOSAT 2 (UO-11) 1 14781U 84021B 26073.30576145 .00001841 00000+0 19403-3 0 9998 2 14781 97.7953 40.0142 0008702 130.1245 230.0737 14.90524636242995 LUSAT (LO-19) 1 20442U 90005G 26073.29561196 .00000181 00000+0 81521-4 0 9993 2 20442 98.8933 92.4531 0012512 121.9319 238.3083 14.34090148888796 EYESAT A (AO-27) 1 22825U 93061C 26073.18223763 .00000118 00000+0 61916-4 0 9994 2 22825 98.6972 140.5955 0008737 26.6550 333.5080 14.30914705693419 ITAMSAT (IO-26) 1 22826U 93061D 26073.18986663 .00000136 00000+0 68368-4 0 9998 2 22826 98.6920 140.5111 0008942 10.2829 349.8535 14.31338914693725 RADIO ROSTO (RS15) 1 23439U 94085A 26073.30735988 -.00000042 00000+0 27269-5 0 9995 2 23439 64.8133 96.6641 0152831 21.1629 339.5528 11.27583899285206 JAS-2 (FO-29) 1 24278U 96046B 26073.23048003 .00000018 00000+0 56138-4 0 9991 2 24278 98.5375 295.0356 0349629 342.9899 15.9756 13.53269011460328 TECHSAT 1B (GO-32) 1 25397U 98043D 26072.95472279 .00000111 00000+0 68054-4 0 9991 2 25397 99.0030 63.3318 0002163 112.8953 247.2453 14.24407471437773 ISS (ZARYA) 1 25544U 98067A 26072.70791847 .00011780 00000+0 22432-3 0 9992 2 25544 51.6324 52.4887 0007884 189.2977 170.7866 15.48633802556952 PCSAT (NO-44) 1 26931U 01043C 26073.30798470 .00000153 00000+0 87881-4 0 9999 2 26931 67.0498 129.6688 0007003 265.0462 94.9840 14.31914710276866 SAUDISAT 1C (SO-50) 1 27607U 02058C 26073.27104551 .00002083 00000+0 26271-3 0 9993 2 27607 64.5526 62.6028 0075307 279.8659 79.3951 14.82804742250386 CUTE-1 (CO-55) 1 27844U 03031E 26072.98964531 .00000396 00000+0 19032-3 0 9999 2 27844 98.6777 82.7351 0010745 101.3524 258.8862 14.24270180178127 CUBESAT XI-IV (CO-57) 1 27848U 03031J 26073.28205840 .00000333 00000+0 16531-3 0 9990 2 27848 98.6808 82.8126 0010519 116.7646 243.4610 14.23564889177874 MOZHAETS 4 (RS22) 1 27939U 03042A 26073.35009584 .00001201 00000+0 19401-3 0 9992 2 27939 98.3446 255.0405 0010768 204.1580 274.9323 14.73267957201586 CUBESAT XI-V 1 28895U 05043F 26073.20123917 .00002218 00000+0 35829-3 0 9999 2 28895 98.2838 226.9108 0014956 143.9195 216.3024 14.72342014 87772 CUTE-1.7+APD II (CO-65) 1 32785U 08021C 26073.22442284 .00008266 00000+0 53436-3 0 9997 2 32785 97.8205 52.7771 0009093 3.4005 356.7283 15.08443211970874 SEEDS II (CO-66) 1 32791U 08021J 26072.91267548 .00023812 00000+0 83927-3 0 9999 2 32791 97.7517 66.5191 0000808 340.2407 19.8801 15.29282651972718 YUBILEINY (RS30) 1 32953U 08025A 26073.21465098 .00000008 00000+0 -16450-4 0 9998 2 32953 82.5007 54.5070 0019679 155.4434 204.7587 12.43175939807894 KKS-1 (KISEKI) 1 33499U 09002H 26073.25588437 .00001920 00000+0 24389-3 0 9999 2 33499 98.1185 354.2207 0006631 232.8662 127.1946 14.82848926922128 SWISSCUBE 1 35932U 09051B 26073.19900544 .00001330 00000+0 27334-3 0 9995 2 35932 98.4096 339.4217 0007381 139.7329 220.4420 14.62273010875271 BEESAT-1 1 35933U 09051C 26073.22844702 .00001122 00000+0 23580-3 0 9991 2 35933 98.4024 339.2828 0005632 149.8471 210.3055 14.61544780875317 ITUPSAT1 1 35935U 09051E 26072.79400777 .00001105 00000+0 23882-3 0 9990 2 35935 98.4112 338.1321 0007539 165.3239 194.8181 14.60278143874812 XIWANG-1 (HOPE-1) 1 36122U 09072B 26073.24494632 -.00000031 00000+0 35288-4 0 9998 2 36122 100.3916 28.6391 0008114 89.9279 270.2764 13.16435590780519 O/OREOS (USA 219) 1 37224U 10062C 26073.28700531 .00002617 00000+0 25501-3 0 9992 2 37224 71.9707 295.2361 0016732 248.9660 110.9721 14.93306403102471 JUGNU 1 37839U 11058B 26072.60296259 .00000522 00000+0 13276-3 0 9991 2 37839 19.9596 169.1222 0018730 100.3127 28.9123 14.13743099745481 SRMSAT 1 37841U 11058D 26072.71752395 .00000480 00000+0 11671-3 0 9994 2 37841 19.9717 277.3263 0011737 233.3697 186.1200 14.11549464744317 STRAND-1 1 39090U 13009E 26073.29886557 .00000418 00000+0 15501-3 0 9999 2 39090 98.3892 255.8760 0009268 148.6774 211.4967 14.37099361683434 ZACUBE-1 (TSHEPISOSAT) 1 39417U 13066B 26073.13182302 .00005011 00000+0 39631-3 0 9999 2 39417 97.8156 34.9774 0043049 205.1786 154.7340 15.00372843666471 GOMX-1 1 39430U 13066Q 26073.25191432 .00001360 00000+0 21110-3 0 9997 2 39430 97.6571 279.6723 0129995 22.9463 337.7480 14.69114961655979 CUBEBUG-2 (LO-74) 1 39440U 13066AA 26073.32206178 .00006583 00000+0 61815-3 0 9998 2 39440 97.8809 22.0019 0058045 343.6383 16.2961 14.93017334662834 FUNCUBE-1 (AO-73) 1 39444U 13066AE 26072.35704843 .00007962 00000+0 51353-3 0 9994 2 39444 97.8186 41.9580 0037754 166.4701 193.7548 15.07980612665219 UWE-3 1 39446U 13066AG 26073.14359577 .00006049 00000+0 52912-3 0 9991 2 39446 97.8592 28.6921 0047984 276.7987 82.7775 14.96235016663361 UNISAT-6 1 40012U 14033C 26073.31442130 .00003871 00000+0 42314-3 0 9999 2 40012 97.7730 227.8011 0045765 22.8262 337.4975 14.87674213632059 DUCHIFAT-1 1 40021U 14033M 26072.05676030 .00060459 00000+0 10636-2 0 9993 2 40021 98.0637 118.8819 0005782 75.3847 284.8044 15.50256532640794 QB50P1 1 40025U 14033R 26073.26259325 .00011575 00000+0 59486-3 0 9997 2 40025 98.1007 77.8547 0008890 178.0080 182.1189 15.16625848638637 LILACSAT-2 1 40908U 15049K 26073.23335553 .00021089 00000+0 40165-3 0 9995 2 40908 97.4806 106.6162 0005996 224.9052 135.1714 15.48209131581046 FOX-1A (AO-85) 1 40967U 15058D 26072.81981035 .00004101 00000+0 37386-3 0 9992 2 40967 64.7749 215.2186 0128775 94.2556 267.3284 14.90393335 99359 CAS-2T & KS-1Q 1 41847U 16066G 26073.20947514 .00001464 00000+0 21280-3 0 9993 2 41847 98.3878 150.0096 0343495 57.8243 305.5779 14.44484568491083 RADFXSAT (FOX-1B) 1 43017U 17073E 26073.09852782 .00011359 00000+0 51448-3 0 9995 2 43017 97.4859 302.3022 0153900 296.8770 61.6800 15.10980490451028 DIWATA-2B 1 43678U 18084H 26073.32516581 .00002117 00000+0 17529-3 0 9995 2 43678 98.1042 265.5517 0012286 112.8168 247.4353 14.99985521401995 ES'HAIL 2 1 43700U 18090A 26073.21707668 .00000144 00000+0 00000+0 0 9994 2 43700 0.0142 134.8997 0001089 216.0554 284.8297 1.00271877 26725 FOX-1CLIFF (AO-95) 1 43770U 18099N 26072.12206546 .00013648 00000+0 55688-3 0 9997 2 43770 97.4510 132.8256 0008083 333.7998 26.2829 15.24512623398579 ITASAT 1 43786U 18099AE 26073.12595020 .00008218 00000+0 40951-3 0 9997 2 43786 97.4161 126.5644 0011792 330.3085 29.7478 15.17755150398484 JY1SAT (JO-97) 1 43803U 18099AX 26073.13250249 .00020436 00000+0 69458-3 0 9998 2 43803 97.4250 135.8091 0004969 237.5316 122.5445 15.30483142399071 UWE-4 1 43880U 18111E 26073.02812134 .00036111 00000+0 89456-3 0 9990 2 43880 97.5847 357.4738 0006671 322.1188 37.9587 15.40303245396102 TIANYAN 01 1 44881U 19093C 26073.26346042 .00000266 00000+0 36240-4 0 9994 2 44881 97.7603 147.7931 0014624 43.8554 316.3820 14.86349954337310 RS-44 & BREEZE-KM R/B 1 44909U 19096E 26073.25070311 .00000028 00000+0 66750-4 0 9995 2 44909 82.5211 42.7827 0217730 6.6707 353.7209 12.79747575290209 SALSAT 1 46495U 20068K 26073.25641504 .00011137 00000+0 40659-3 0 9998 2 46495 97.8859 70.6524 0008077 277.0692 82.9628 15.28285287300854 XW-3 (CAS-9) 1 50466U 21131B 26073.29427924 .00000428 00000+0 14617-3 0 9991 2 50466 98.4951 166.2226 0004670 37.6837 322.4679 14.41257113221440 GREENCUBE (IO-117) 1 53109U 22080E 26072.15662715 -.00000003 00000+0 00000+0 0 9992 2 53109 70.1608 331.6501 0009033 310.6857 49.3018 6.42583056 85890 UMKA 1 (RS40S) 1 57172U 23091G 26073.24730161 .00008388 00000+0 39520-3 0 9997 2 57172 97.5174 132.3352 0014641 91.9324 268.3588 15.19671108149586 CUBESX-HSE 3 (RS42S) 1 57178U 23091N 26073.27674699 .00016255 00000+0 58233-3 0 9993 2 57178 97.5203 137.7938 0012507 72.9678 287.2930 15.28754785149915 MONITOR-3 (RS58S) 1 57180U 23091Q 26073.30338128 .00013753 00000+0 53811-3 0 9991 2 57180 97.5199 136.1440 0013549 77.5975 282.6778 15.25863553149810 MONITOR-4 (RS57S) 1 57182U 23091S 26073.22267167 .00013165 00000+0 51396-3 0 9991 2 57182 97.5193 136.0278 0013529 78.4022 281.8734 15.25947621149806 MONITOR-2 (RS39S) 1 57184U 23091U 26073.28758968 .00006358 00000+0 31557-3 0 9996 2 57184 97.5198 132.1935 0012990 84.8016 275.4700 15.17975694149551 SVYATOBOR 1 (RS60S) 1 57187U 23091X 26073.29363350 .00011691 00000+0 47147-3 0 9995 2 57187 97.5205 136.6561 0011037 71.3182 288.9253 15.24919755149841 VIZARD-METEO (RS38S) 1 57189U 23091Z 26073.20233075 .00021383 00000+0 67286-3 0 9993 2 57189 97.5192 140.9652 0008509 58.6478 301.5595 15.32934517150129 NANOZOND 1 (RS49S) 1 57190U 23091AA 26068.04609972 .00257461 00000+0 17344-2 0 9991 2 57190 97.5065 148.2398 0000999 320.8834 39.2358 15.74384803150173 POLYTECH-UNIVERSE 3 (R*) 1 57191U 23091AB 26073.26112725 .00006505 00000+0 32056-3 0 9996 2 57191 97.5172 131.6741 0017410 99.7098 260.6103 15.18160536149541 UTMN 2 (RS27S) 1 57203U 23091AP 26073.28239524 .00015833 00000+0 55280-3 0 9997 2 57203 97.5194 139.3160 0009470 62.6716 297.5487 15.29632984150024 KUZGTU 1 (RS47S) 1 57217U 23091AV 26073.32146968 .00015847 00000+0 58779-3 0 9997 2 57217 97.5178 136.9470 0012716 75.5083 284.7566 15.27613736149885 SONATE-2 1 59112U 24043Q 26073.30294426 .00044714 00000+0 74772-3 0 9998 2 59112 97.5392 218.4557 0007945 187.7082 172.4049 15.51744255113141 MESAT1 1 60209U 24125G 26073.07942843 .00051785 00000+0 79547-3 0 9996 2 60209 97.2456 288.9723 0011475 203.9126 156.1596 15.54034912 94754 OOV-CUBE (TUBSAT-30) 1 60240U 24128F 26072.82291193 .00003760 00000+0 29030-3 0 9993 2 60240 61.9947 197.9838 0054165 113.1993 247.4816 15.02286526 91787 COLIBRI-S (RS67S) 1 61746U 24199M 26073.28729844 .00025858 00000+0 57362-3 0 9994 2 61746 97.3159 306.4724 0007471 264.5073 95.5323 15.43686539122756 HORS 3 (RS81S) 1 61753U 24199U 26073.29898213 .00038240 00000+0 71274-3 0 9997 2 61753 97.3126 307.6231 0005303 267.4865 92.5779 15.48714202122843 HORS 4 (RS82S) 1 61754U 24199V 26073.29385079 .00047000 00000+0 79040-3 0 9992 2 61754 97.3097 308.3332 0004926 263.5058 96.5634 15.51595479122898 HORIZON (RS59S) 1 61757U 24199Y 26073.26911686 .00171164 00000+0 13102-2 0 9996 2 61757 97.3064 312.2811 0003493 218.3812 141.7203 15.71610935123146 ARCTICSAT 1 (RS74S) 1 61762U 24199AD 26073.29564753 .00121170 00000+0 11383-2 0 9995 2 61762 97.3082 311.7990 0003821 221.2420 138.8553 15.66761256123116 SIT-2086 1 61764U 24199AF 26073.24756839 .00028803 00000+0 55330-3 0 9990 2 61764 97.3119 308.2962 0005956 252.2875 107.7725 15.47897145119722 HYPERVIEW 1G (RS66S) 1 61772U 24199AP 26073.25161821 .00083469 00000+0 10784-2 0 9993 2 61772 97.3083 309.4441 0006289 261.6481 98.4062 15.58656601119815 ALTAIR (RS65S) 1 61779U 24199AW 26073.26469779 .00011324 00000+0 33416-3 0 9993 2 61779 97.3182 303.2893 0011785 289.9150 70.0824 15.35083256122549 ASRTU-1 (AO-123) 1 61781U 24199AY 26073.24708936 .00011425 00000+0 34696-3 0 9998 2 61781 97.3155 302.7907 0012527 292.0771 67.9142 15.34162909119367 TUSUR GO (RS78S) 1 61782U 24199AZ 26073.28008918 .00198296 00000+0 14653-2 0 9998 2 61782 97.3020 311.3048 0003763 241.5629 118.5255 15.72371950119946 SAMSAT-IONOSPHERE (RS7*) 1 61784U 24199BB 26073.25507765 .00048507 00000+0 86389-3 0 9996 2 61784 97.3118 307.3787 0008413 272.7650 87.2639 15.49940009122828 RTU MIREA 1 (RS51S) 1 61785U 24199BC 26073.24725730 .00054278 00000+0 90045-3 0 9996 2 61785 97.3117 307.8289 0008315 268.0841 91.9460 15.51919927119706 TEVEL2-4 1 63213U 25052D 26073.20385858 .00023564 00000+0 78435-3 0 9995 2 63213 97.4017 329.6223 0004789 86.9566 273.2223 15.31130198 55564 TEVEL2-5 1 63214U 25052E 26072.95373556 .00021913 00000+0 73283-3 0 9991 2 63214 97.4014 329.3446 0004731 87.9686 272.2097 15.30992820 55528 TEVEL2-6 1 63215U 25052F 26073.22511821 .00022861 00000+0 76495-3 0 9993 2 63215 97.4020 329.6012 0004860 88.1178 272.0620 15.30966528 55560 TEVEL2-1 1 63217U 25052H 26073.22461169 .00022040 00000+0 74737-3 0 9990 2 63217 97.3991 329.3286 0004896 97.4794 262.7004 15.30541751 55552 TEVEL2-3 1 63218U 25052J 26073.22208351 .00022359 00000+0 75728-3 0 9997 2 63218 97.3993 329.3377 0004939 96.9719 263.2084 15.30578626 55550 TEVEL2-2 1 63219U 25052K 26073.15988645 .00022260 00000+0 75480-3 0 9997 2 63219 97.3990 329.2648 0004900 97.5178 262.6619 15.30541286 55540 TEVEL2-9 1 63237U 25052AD 26073.21876356 .00021106 00000+0 75427-3 0 9998 2 63237 97.4057 328.8850 0008325 111.8631 248.3495 15.28817210 55503 TEVEL2-7 1 63238U 25052AE 26073.24371614 .00021107 00000+0 75938-3 0 9997 2 63238 97.4058 328.8610 0008415 111.8105 248.4031 15.28596950 55507 TEVEL2-8 1 63239U 25052AF 26073.25080297 .00021258 00000+0 76530-3 0 9999 2 63239 97.4055 328.8486 0008377 112.1576 248.0554 15.28575203 55503 HADES-ICM 1 63492U 25052BN 26072.68106932 .00170959 00000+0 22260-2 0 9994 2 63492 97.3932 333.2766 0009231 103.5078 256.7207 15.58119630 55769 INNOSAT 16 (RS92S7) 1 64878U 25155C 26073.24643064 .00008634 00000+0 35590-3 0 9993 2 64878 97.4465 40.8139 0011572 150.5891 209.5999 15.24260142 66204 GEOSCAN 6 (RS92S6) 1 64879U 25155D 26073.29906862 .00014198 00000+0 51971-3 0 9990 2 64879 97.4463 41.6765 0009340 140.4949 219.6973 15.28108711 66266 GEOSCAN 1 (RS92S1) 1 64880U 25155E 26073.26809985 .00015225 00000+0 54983-3 0 9995 2 64880 97.4461 41.7222 0009218 140.7005 219.4905 15.28537086 66269 239ALFEROV (RS61S) 1 64881U 25155F 26073.28918964 .00019637 00000+0 67494-3 0 9998 2 64881 97.4465 42.0282 0008993 138.7075 221.4848 15.30101034 66281 GEOSCAN 2 (RS92S2) 1 64890U 25155Q 26073.27955455 .00015185 00000+0 54341-3 0 9994 2 64890 97.4459 41.8464 0008984 128.8610 231.3433 15.28839644 66279 GEOSCAN 5 (RS92S5) 1 64891U 25155R 26073.29835273 .00019852 00000+0 67555-3 0 9998 2 64891 97.4458 42.1375 0007678 141.8519 218.3267 15.30434369 66296 GEOSCAN 4 (RS92S4) 1 64892U 25155S 26073.29042115 .00019373 00000+0 65725-3 0 9999 2 64892 97.4461 42.1549 0007672 142.1965 217.9816 15.30537691 66294 GEOSCAN 3 (RS92S3) 1 64893U 25155T 26073.26434188 .00024389 00000+0 79217-3 0 9996 2 64893 97.4453 42.3282 0007399 142.3764 217.7996 15.31898717 66306 INNOSAT 3 (RS92S0) 1 64894U 25155U 26073.28212460 .00044267 00000+0 12160-2 0 9996 2 64894 97.4422 43.0297 0007278 136.3843 223.7978 15.37070810 66358